Location: Unspecified
(0.0000°N, 0.0000°E)
Time: 10:25:56
(UTC+00:00)

Vanguard 2 Rocket - Pass Details

Date: 12 October 2022
Orbit: 555 x 3321 km, 32.9° (Epoch: 06 December)

Event Time Altitude Azimuth Distance (km) Brightness Sun altitude
Rises 01:57:12 0° 323° (NW) 5,196 - -56.6°
Reaches altitude 10° 02:02:43 10° 340° (NNW) 3,584 - -55.3°
Maximum altitude 02:07:55 17° 18° (NNE) 2,500 - -54.0°
Drops below altitude 10° 02:11:49 10° 58° (ENE) 2,564 - -53.1°
Sets 02:14:49 0° 79° (E) 3,200 - -52.3°
